San Angelo, TX

11:33 PM CST on February 24, 2017 (GMT -0600)
San Angelo Regional-Mathis

Weather History for KSJT - September, 2013

Change the Weather History Date:

Thursday, September 19, 2013

  Actual Average Record
Temperature  
Mean Temperature 74 °F 74 °F  
Max Temperature 78 °F 87 °F 100 °F (1945)
Min Temperature 70 °F 62 °F 39 °F (1913)
Degree Days  
Heating Degree Days 0 0  
Month to date heating degree days 0 0  
Since 1 July heating degree days 0 0  
Cooling Degree Days 9 10  
Month to date cooling degree days 305 238  
Year to date cooling degree days 2631 2274  
Growing Degree Days 21 (Base 50)    
Moisture  
Dew Point 70 °F    
Average Humidity 84    
Maximum Humidity 100    
Minimum Humidity 67    
Precipitation  
Precipitation 2.43 in 0.07 in 2.43 in (2013)
Month to date precipitation 2.69 1.63  
Year to date precipitation 14.45 15.70  
Sea Level Pressure  
Sea Level Pressure 29.93 in    
Wind  
Wind Speed 5 mph (East)    
Max Wind Speed 18 mph    
Max Gust Speed 21 mph    
Visibility 6 miles    
Events Rain    
T = Trace of Precipitation, MM = Missing Value Source: NWS Daily Summary

Daily Weather History Graph

Daily Weather History Graph

Search for Another Location

Airport or City:

Trip Planner

Search our weather history database for the weather conditions in past years. The results will help you decide how hot, cold, wet, or windy it might be!

Date:

Astronomy

Sep. 19, 2013 Rise Set
Actual Time 7:28 AM CDT 7:42 PM CDT
Civil Twilight 7:04 AM CDT 8:06 PM CDT
Nautical Twilight 6:36 AM CDT 8:34 PM CDT
Astronomical Twilight 6:07 AM CDT 9:03 PM CDT
Moon 7:46 PM CDT (9/19) 7:36 AM CDT (9/19)
Length of Visible Light 13h 01m
Length of Day
12h 13m
Full, 100% of the Moon is Illuminated
Sep 19
Full
Sep 26
Last Quarter
Oct 4
New
Oct 11
First Quarter
Oct 18
Full

Hourly Weather History & Observations

Time (CDT) Temp. Dew Point Humidity Pressure Visibility Wind Dir Wind Speed Gust Speed Precip Events Conditions
12:51 AM 78.1 °F 66.0 °F 66% 29.89 in 10.0 mi South 9.2 mph - N/A   Clear
1:51 AM 78.1 °F 66.0 °F 66% 29.90 in 10.0 mi South 9.2 mph - N/A   Clear
2:51 AM 75.9 °F 66.0 °F 71% 29.89 in 10.0 mi South 6.9 mph - N/A   Partly Cloudy
3:51 AM 75.9 °F 66.0 °F 71% 29.88 in 10.0 mi South 5.8 mph - N/A   Mostly Cloudy
4:51 AM 75.0 °F 66.9 °F 76% 29.87 in 10.0 mi South 8.1 mph - N/A   Partly Cloudy
5:51 AM 75.0 °F 68.0 °F 79% 29.88 in 10.0 mi South 5.8 mph - N/A   Scattered Clouds
6:51 AM 73.0 °F 69.1 °F 87% 29.88 in 10.0 mi SSE 3.5 mph - 0.01 in Rain Light Rain
7:51 AM 72.0 °F 70.0 °F 93% 29.90 in 9.0 mi SSE 3.5 mph - 0.03 in Rain Light Rain
8:51 AM 72.0 °F 71.1 °F 97% 29.92 in 8.0 mi Calm Calm - 0.07 in Rain Light Rain
9:51 AM 72.0 °F 71.1 °F 97% 29.94 in 6.0 mi ESE 3.5 mph - 0.12 in Rain Light Rain
10:51 AM 73.0 °F 71.1 °F 93% 29.95 in 8.0 mi Calm Calm - 0.07 in Rain Light Rain
11:21 AM 73.4 °F 71.6 °F 94% 30.01 in 9.0 mi ENE 3.5 mph - 0.01 in Rain Light Rain
11:46 AM 73.4 °F 71.6 °F 94% 30.02 in 10.0 mi East 4.6 mph - 0.03 in Rain Light Rain
11:51 AM 73.0 °F 71.1 °F 93% 29.95 in 10.0 mi East 3.5 mph - 0.03 in Rain Light Rain
12:14 PM 73.4 °F 71.6 °F 94% 30.01 in 10.0 mi East 3.5 mph - 0.00 in Rain Light Rain
12:24 PM 73.4 °F 71.6 °F 94% 30.01 in 10.0 mi ENE 5.8 mph - 0.00 in Rain Light Rain
12:51 PM 73.9 °F 71.1 °F 91% 29.94 in 9.0 mi East 5.8 mph - 0.01 in Rain Light Rain
1:51 PM 73.9 °F 72.0 °F 93% 29.91 in 7.0 mi NE 6.9 mph - 0.03 in Rain Light Rain
1:58 PM 73.4 °F 71.6 °F 94% 29.96 in 7.0 mi NE 8.1 mph - 0.01 in Rain Light Rain
2:51 PM 73.9 °F 71.1 °F 91% 29.89 in 5.0 mi ENE 9.2 mph - 0.07 in Rain Light Rain
3:03 PM 73.4 °F 71.6 °F 94% 29.94 in 2.5 mi NE 6.9 mph - 0.05 in Rain Rain
3:11 PM 73.4 °F 71.6 °F 94% 29.94 in 2.5 mi NE 10.4 mph - 0.08 in Rain Rain
3:30 PM 71.6 °F 71.6 °F 100% 29.95 in 1.0 mi East 12.7 mph - 0.27 in Rain Heavy Rain
3:34 PM 71.6 °F 71.6 °F 100% 29.95 in 0.8 mi East 18.4 mph - 0.37 in Rain Heavy Rain
3:49 PM 71.6 °F 69.8 °F 94% 29.95 in 2.0 mi ENE 11.5 mph - 0.72 in Rain Heavy Rain
3:51 PM 71.1 °F 69.1 °F 93% 29.89 in 2.0 mi East 10.4 mph - 0.73 in Rain Heavy Rain
4:05 PM 71.6 °F 69.8 °F 94% 29.95 in 1.8 mi ENE 6.9 mph - 0.12 in Rain Heavy Rain
4:19 PM 71.6 °F 69.8 °F 94% 29.96 in 0.8 mi East 9.2 mph - 0.36 in Rain Heavy Rain
4:29 PM 69.8 °F 69.8 °F 100% 29.95 in 1.2 mi ENE 9.2 mph - 0.64 in Rain Heavy Rain
4:35 PM 69.8 °F 69.8 °F 100% 29.95 in 3.0 mi ENE 9.2 mph - 0.67 in Rain Rain
4:46 PM 69.8 °F 69.8 °F 100% 29.95 in 6.0 mi ENE 3.5 mph - 0.71 in Rain Rain
4:51 PM 70.0 °F 69.1 °F 97% 29.89 in 6.0 mi Calm Calm - 0.72 in Rain Rain
5:26 PM 71.6 °F 69.8 °F 94% 29.95 in 5.0 mi East 3.5 mph - 0.05 in Rain Rain
5:42 PM 71.6 °F 69.8 °F 94% 29.94 in 2.0 mi Calm Calm - 0.13 in Rain Rain
5:51 PM 71.1 °F 70.0 °F 96% 29.89 in 4.0 mi Calm Calm - 0.16 in Rain Rain
6:08 PM 71.6 °F 69.8 °F 94% 29.95 in 5.0 mi NNE 3.5 mph - 0.04 in Rain Light Rain
6:35 PM 71.6 °F 69.8 °F 94% 29.94 in 2.5 mi ENE 6.9 mph - 0.10 in Rain Heavy Rain
6:51 PM 71.1 °F 70.0 °F 96% 29.89 in 3.0 mi NE 8.1 mph - 0.18 in Rain Rain
7:26 PM 71.6 °F 69.8 °F 94% 29.94 in 3.0 mi ENE 8.1 mph - 0.07 in Rain Rain
7:33 PM 69.8 °F 69.8 °F 100% 29.93 in 4.0 mi ENE 8.1 mph - 0.09 in Rain Light Rain
7:51 PM 70.0 °F 69.1 °F 97% 29.88 in 10.0 mi ENE 9.2 mph - 0.12 in Rain Light Rain
8:51 PM 70.0 °F 69.1 °F 97% 29.89 in 10.0 mi East 3.5 mph - 0.02 in Rain Light Rain
9:51 PM 70.0 °F 69.1 °F 97% 29.89 in 10.0 mi East 5.8 mph - 0.04 in Rain Light Rain
10:51 PM 71.1 °F 70.0 °F 96% 29.88 in 10.0 mi East 9.2 mph - 0.00 in Rain Light Rain
11:51 PM 71.1 °F 70.0 °F 96% 29.89 in 10.0 mi ENE 6.9 mph - 0.02 in Rain Light Rain